Home > Weather > Arequipa > Past weeks

Flag for Peru Weather for the Past 2 Weeks in Arequipa, Arequipa, Peru

Now
55 °F

Clear.


Feels Like: 55 °F
Forecast: 51 / 72 °F
Wind: 2 mph from North

Location: Arequipa Airport

Current Time: Feb 13, 2016 at 3:02:26 AM

Latest Report: Feb 13, 2016 at 2:00 AM


Visibility: 10 mi

Pressure: 30.27 "Hg (22.88 "Hg at 2345m altitude)

Humidity: 82%

Dew point: 50 °F

Location of ArequipaLocation

Historic Weather in Arequipa — Graph

°F

Arequipa Temperature Yesterday

Maximum temperature yesterday: 72 °F (at 11:00 AM)
Minimum temperature yesterday: 55 °F (at 6:00 PM)
Average temperature yesterday: 62 °F

High & Low Weather Summary for the Past Weeks

 TemperatureHumidityPressure
High79 °F (Feb 4, 11:00 AM)94% (Feb 12, 6:00 PM)30.39 "Hg (Feb 12, 6:00 PM)
Low50 °F (Jan 31, 3:00 AM)28% (Feb 4, 11:00 AM)30.21 "Hg (Feb 3, 3:00 AM)
Average61 °F65%30.30 "Hg
* Reported Jan 29 2:00 AM — Feb 13 2:00 AM, Arequipa, Weather by CustomWeather, © 2016

Note: Actual official high and low records may vary slightly from our data, if they occured in-between our weather recording intervals... More about our weather records

Advertising

Arequipa Weather History for the Previous 24 Hours

 ConditionsComfort  
Time TempWeatherWind HumidityBarometerVisibility
2:00 AM
Sat, Feb 13
55 °FClear.2 mph82%30.27 "Hg10 mi
1:00 AM57 °FPassing clouds.5 mph88%30.27 "HgN/A
12:00 AM59 °FPassing clouds.3 mph82%30.30 "HgN/A
11:00 PM
Fri, Feb 12
59 °FPassing clouds.No wind88%30.33 "HgN/A
10:00 PM59 °FPassing clouds.3 mph94%30.33 "HgN/A
9:00 PM59 °FPassing clouds.3 mph88%30.33 "HgN/A
8:00 PM59 °FPartly cloudy.6 mph88%30.33 "HgN/A
7:00 PM55 °FLight rain. Partly cloudy.No wind94%30.33 "Hg6 mi
6:00 PM55 °FLight rain. Broken clouds.6 mph94%30.30 "Hg4 mi
5:00 PM57 °FLight rain. Fog.10 mph88%30.30 "Hg3 mi
4:00 PM61 °FBroken clouds.13 mph72%30.27 "HgN/A
3:00 PM63 °FLight rain. Broken clouds.10 mph68%30.30 "HgN/A
2:00 PM64 °FScattered clouds.13 mph64%30.27 "HgN/A
1:00 PM68 °FScattered clouds.14 mph49%30.30 "HgN/A
12:00 PM72 °FPassing clouds.14 mph38%30.30 "HgN/A
11:00 AM72 °FPassing clouds.12 mph44%30.33 "HgN/A
10:00 AM70 °FScattered clouds.6 mph38%30.33 "HgN/A
9:00 AM68 °FPassing clouds.5 mph46%30.33 "HgN/A
8:00 AM64 °FPassing clouds.5 mph60%30.33 "HgN/A
7:00 AM61 °FPassing clouds.2 mph68%30.33 "HgN/A
6:00 AM57 °FScattered clouds.3 mph82%30.30 "HgN/A
5:00 AM59 °FPartly cloudy.No wind77%30.27 "HgN/A
4:00 AM59 °FPartly cloudy.No wind82%30.27 "HgN/A
3:00 AM61 °FLight rain. Partly cloudy.6 mph63%30.27 "HgN/A
Weather by CustomWeather, © 2016

See weather overviewHow to use our weather pages